Tracking 19281 objects as of 16-Nov-2018
HD Live streaming from Space Station
objects crossing your sky now

RADUGA 6

Track RADUGA 6 now!
RADUGA 6 is classified as:


NORAD ID: 11708
Int'l Code: 1980-016A
Perigee: 35,782.3 km
Apogee: 35,809.5 km
Inclination: 12.0 °
Period: 1,436.2 minutes
Semi major axis: 42166 km
RCS: 1.2589 m2 (large)
Launch date: February 20, 1980
Source: Commonwealth of Independent States (former USSR) (CIS)
Launch site: TYURATAM MISSILE AND SPACE COMPLEX (TTMTR)
aabbcc
Your satellite tracking list
Your tracking list is empty




NASA's NSSDC Master Catalog

Two Line Element Set (TLE):
1 11708U 80016A   18319.47117860 -.00000347 +00000-0 +00000-0 0  9993
2 11708 011.9865 317.8267 0003219 292.8386 080.9865 01.00264068094383
Source of the keplerian elements: AFSPC